SCP
0 0 0 0 0 0 0 0 0 0 0 0 0 0 0 0 0 0 0 0 0 0 0 0 0 0 0 0 0 0 0 0 0 0 0 0 0 0 0 0 0 0 0
0 0 0 0 0 0 0 0 0 0 0 0 0 0 0 0 0 0 0 0 0 0 0 0 0 0 0 0 0 0 0 0 0 0 0 0 0 0 0 0 0 0 0
0 0 0 0 0 0 0 0 0 0 0 0 0 0 0 0 0 0 0 0 0 0 0 0 0 0 0 0 0 0 0 0 0 0 0 0 0 0 0 0 0 0 0
0 0 0 0 0 0 0 0 0 0 0 0 0 0 0 0 0 0 0 0 0 0 0 0 0 0 0 0 0 0 0 0 0 0 0 0 0 0 0 0 0 0 0
0 0 0 0 0 0 0 0 0 0 0 0 0 0 0 0 0 0 0 0 0 0 0 0 0 0 0 0 0 0 0 0 0 0 0 0 0 0 0 0 0 0 0
0 0 0 0 0 0 0 0 0 0 0 0 0 0 0 0 0 0 0 0 0 0 0 0 0 0 0 0 0 0 0 0 0 0 0 0 0 0 0 0 0 0 0
0 0 0 0 0 0 0 0 0 0 0 0 0 0 0 0 0 0 0 0 0 0 0 0 0 0 0 0 0 0 0 0 0 0 0 0 0 0 0 0 0 0 0
0 0 0 0 0 0 0 0 0 0 0 0 0 0 0 0 0 0 0 0 0 0 0 0 0 0 0 0 0 0 0 0 0 0 0 0 0 0 0 0 0 0 0
0 0 0 0 0 0 0 0 0 0 0 0 0 0 0 0 0 0 0 0 0 0 0 0 0 0 0 0 0 0 0 0 0 0 0 0 0 0 0 0 0 0 0
0 0 0 0 0 0 0 0 0 0 0 0 0 0 0 0 0 0 0 0 0 0 0 0 0 0 0 0 0 0 0 0 0 0 0 0 0 0 0 0 0 0 0
0 0 0 0 0 0 0 0 0 0 0 0 0 0 0 0 0 0 0 0 0 0 0 0 0 0 0 0 0 0 0 0 0 0 0 0 0 0 0 0 0 0 0
0 0 0 0 0 0 0 0 0 0 0 0 0 0 0 0 0 0 0 0 0 0 0 0 0 0 0 0 0 0 0 0 0 0 0 0 0 0 0 0 0 0 0
0 0 0 0 0 0 0 0 0 0 0 0 0 0 0 0 0 0 0 0 0 0 0 0 0 0 0 0 0 0 0 0 0 0 0 0 0 0 0 0 0 0 0
0 0 0 0 0 0 0 0 0 0 0 0 0 0 0 0 0 0 0 0 0 0 0 0 0 0 0 0 0 0 0 0 0 0 0 0 0 0 0 0 0 0 0
0 0 0 0 0 0 0 0 0 0 0 0 0 0 0 0 0 0 0 0 0 0 0 0 0 0 0 0 0 0 0 0 0 0 0 0 0 0 0 0 0 0 0
0 0 0 0 0 0 0 0 0 0 0 0 0 0 0 0 0 0 0 0 0 0 0 0 0 0 0 0 0 0 0 0 0 0 0 0 0 0 0 0 0 0 0
0 0 0 0 0 0 0 0 0 0 0 0 0 0 0 0 0 0 0 0 0 0 0 0 0 0 0 0 0 0 0 0 0 0 0 0 0 0 0 0 0 0 0
0 0 0 0 0 0 0 0 0 0 0 0 0 0 0 0 0 0 0 0 0 0 0 0 0 0 0 0 0 0 0 0 0 0 0 0 0 0 0 0 0 0 0
0 0 0 0 0 0 0 0 0 0 0 0 0 0 0 0 0 0 0 0 0 0 0 0 0 0 0 0 0 0 0 0 0 0 0 0 0 0 0 0 0 0 0
0 0 0 0 0 0 0 0 0 0 0 0 0 0 0 0 0 0 0 0 0 0 0 0 0 0 0 0 0 0 0 0 0 0 0 0 0 0 0 0 0 0 0
0 0 0 0 0 0 0 0 0 0 0 0 0 0 0 0 0 0 0 0 0 0 0 0 0 0 0 0 0 0 0 0 0 0 0 0 0 0 0 0 0 0 0
0 0 0 0 0 0 0 0 0 0 0 0 0 0 0 0 0 0 0 0 0 0 0 0 0 0 0 0 0 0 0 0 0 0 0 0 0 0 0 0 0 0 0
0 0 0 0 0 0 0 0 0 0 0 0 0 0 0 0 0 0 0 0 0 0 0 0 0 0 0 0 0 0 0 0 0 0 0 0 0 0 0 0 0 0 0
0 0 0 0 0 0 0 0 0 0 0 0 0 0 0 0 0 0 0 0 0 0 0 0 0 0 0 0 0 0 0 0 0 0 0 0 0 0 0 0 0 0 0
0 0 0 0 0 0 0 0 0 0 0 0 0 0 0 0 0 0 0 0 0 0 0 0 0 0 0 0 0 0 0 0 0 0 0 0 0 0 0 0 0 0 0
0 0 0 0 0 0 0 0 0 0 0 0 0 0 0 0 0 0 0 0 0 0 0 0 0 0 0 0 0 0 0 0 0 0 0 0 0 0 0 0 0 0 0
Wind_Speed_500mb
44 41 39 36 32 29 28 27 25 25 25 25 26 28 31 33 35 39 41 41 40 42 40 33 36 38 42 45 48 54 54 53 55 57 59 57 48 45 26 21 40 38 40
46 41 39 36 33 31 29 30 30 30 28 30 33 34 32 31 30 31 33 34 34 33 30 31 32 36 37 38 41 43 45 46 47 44 47 30 51 32 43 45 42 43 43
41 34 35 34 31 32 29 29 30 27 23 24 27 27 26 26 25 25 26 27 25 24 25 28 30 32 34 35 37 38 38 39 43 40 25 19 16 56 44 58 52 50 56
35 33 34 33 30 28 25 20 19 21 23 22 20 19 16 13 13 15 16 17 19 21 23 25 26 28 30 32 34 36 38 40 43 45 37 36 41 39 42 44 62 63 60
36 36 33 29 24 20 18 16 13 10 5 1 1 4 6 7 7 10 12 14 18 20 22 24 27 29 31 33 37 39 40 41 42 43 49 52 53 46 37 60 47 80 77
38 37 34 31 27 23 18 15 14 13 14 11 12 10 9 9 8 8 9 12 16 20 23 26 29 32 35 36 39 40 41 43 44 45 44 46 50 55 55 67 84 87 91
43 26 37 35 33 31 29 26 21 13 9 9 9 7 7 8 9 11 16 18 20 23 27 30 32 36 39 42 44 45 47 48 48 48 47 46 47 50 53 58 69 76 98
37 29 39 39 38 31 23 20 16 11 7 6 7 8 11 12 15 18 21 23 25 27 29 33 38 43 47 50 52 54 55 54 54 53 53 53 52 53 54 57 58 79 83
40 28 31 34 36 28 26 18 14 8 4 3 9 11 14 16 17 18 20 22 25 29 35 41 46 51 55 57 56 54 54 53 55 54 55 56 54 54 54 55 53 49 48
36 27 29 31 29 26 18 13 7 2 2 5 10 13 15 14 14 16 19 25 32 39 45 51 56 57 56 56 57 57 58 58 56 57 59 60 60 59 56 55 54 49 53
43 52 45 35 27 22 17 12 7 5 4 6 9 11 12 12 16 22 28 36 44 50 55 57 56 57 58 57 55 53 53 53 54 54 58 60 62 64 63 61 58 56 53
59 53 45 36 27 18 15 12 9 4 3 6 8 10 13 18 24 31 40 46 51 51 50 51 49 48 48 48 49 51 52 54 56 57 58 59 62 63 63 65 65 63 59
55 46 38 32 26 20 16 12 8 6 6 6 8 12 17 23 32 40 45 45 45 45 44 44 43 43 45 47 48 49 51 51 54 58 62 64 66 68 68 67 68 66 67
49 42 34 31 28 23 19 14 11 9 6 6 10 17 26 33 38 39 40 39 39 39 38 41 44 45 46 48 51 53 57 59 61 62 63 64 66 70 72 72 68 67 69
42 35 34 36 33 28 22 18 13 9 7 9 17 25 31 33 34 33 33 33 35 38 40 39 41 45 49 54 59 61 61 62 63 63 64 65 67 68 68 66 66 65 62
48 40 38 38 37 31 25 19 16 12 10 17 24 27 30 30 30 30 31 33 34 37 41 44 46 48 50 53 57 62 65 65 65 67 67 66 65 65 65 65 62 58 60
49 48 46 43 38 31 24 18 14 12 18 24 27 28 28 29 29 30 32 35 38 40 42 44 46 50 54 60 62 64 65 67 68 69 70 73 74 73 71 72 71 71 69
41 45 44 43 36 29 22 16 13 19 24 26 26 26 28 29 31 33 35 37 39 42 44 47 51 54 56 58 62 65 64 64 67 69 72 72 73 74 68 75 84 84 82
27 31 34 34 30 22 15 16 21 24 25 25 26 28 28 30 33 35 37 39 41 42 45 49 52 53 56 57 58 61 63 65 66 67 68 71 74 74 71 76 86 93 93
22 28 32 27 20 18 19 22 24 25 25 26 29 29 32 34 36 39 40 41 43 44 44 46 49 53 52 54 54 57 62 64 68 69 70 73 74 74 75 76 80 89 94
25 26 24 22 21 20 21 24 25 26 26 29 31 33 35 39 41 41 42 42 42 44 45 45 47 47 49 47 50 54 58 63 70 74 81 83 74 74 80 75 80 76 80
22 22 21 19 20 22 26 27 26 26 29 33 34 36 38 39 39 41 42 42 43 43 45 45 44 45 43 47 51 55 59 60 67 76 85 83 84 92 91 87 84 81 79
22 22 21 22 24 27 29 27 26 30 33 34 37 38 39 39 41 43 44 43 43 45 47 47 47 42 42 46 53 59 65 68 62 74 71 90 94 94 93 86 79 76 74
26 25 26 27 29 32 29 28 30 33 35 36 38 39 40 43 43 43 42 42 43 44 47 47 47 47 49 53 59 65 68 69 74 82 86 86 86 83 81 81 77 71 66
31 32 33 34 34 37 33 33 34 36 38 39 40 42 44 44 44 43 41 41 44 45 45 44 45 49 52 54 55 55 60 58 67 74 84 87 86 87 84 81 75 68 64
39 39 37 40 39 39 38 38 41 40 43 43 45 46 46 45 44 42 38 40 41 42 41 39 43 46 51 57 61 55 50 59 74 78 81 83 81 80 79 77 74 69 64
Wind_Direction_500mb
202 204 206 213 216 220 224 229 234 242 247 253 262 268 272 277 281 286 288 291 293 296 299 293 298 303 304 300 297 299 302 307 310 316 314 316 319 321 322 330 317 315 308
202 207 211 216 218 222 232 239 242 248 256 264 267 269 274 280 281 283 288 292 297 302 304 300 295 297 302 306 310 313 315 317 319 330 334 331 328 322 314 319 321 321 314
203 204 207 210 214 219 225 233 238 244 248 256 263 271 279 281 282 284 291 299 306 311 313 312 313 316 318 320 322 322 323 322 321 326 333 330 309 319 319 314 317 310 311
196 194 193 192 194 194 194 198 217 235 248 263 277 274 273 278 294 308 315 319 319 323 328 327 326 324 324 322 323 326 327 326 324 325 320 311 299 307 311 307 310 307 304
169 164 163 165 168 174 185 198 216 237 253 257 26 24 28 30 7 347 344 338 338 339 335 333 333 331 330 330 331 331 330 327 325 322 320 318 317 319 298 305 305 307 311
150 155 154 150 151 146 150 146 120 113 104 92 76 57 47 42 24 354 336 338 337 336 335 336 336 337 336 336 335 334 330 328 326 324 319 315 314 311 308 304 309 311 312
142 157 149 140 131 128 124 123 116 103 91 77 67 45 17 2 343 337 338 339 338 342 345 347 348 346 344 341 337 333 330 326 323 321 318 316 314 309 307 302 303 305 309
129 146 134 128 126 124 121 121 120 112 91 55 28 12 357 348 341 343 343 346 351 354 352 346 341 337 333 329 327 323 320 318 316 314 311 310 309 307 306 306 308 310 306
136 143 131 143 152 155 161 147 127 119 101 16 350 347 344 344 345 355 357 350 345 341 338 332 328 326 323 321 319 317 315 316 314 315 314 312 312 308 307 304 302 300 301
167 182 174 159 144 144 141 119 117 134 330 346 338 343 348 351 353 356 342 333 332 330 326 324 323 322 321 321 321 321 320 319 319 317 315 315 312 311 308 304 300 295 290
186 178 173 164 161 155 157 164 180 216 273 329 337 345 345 344 343 336 328 327 325 325 324 323 324 324 325 324 324 325 325 324 323 321 318 318 315 314 313 308 303 298 290
171 167 165 163 165 165 168 178 193 219 297 319 331 331 335 332 327 322 321 321 322 323 324 325 326 327 326 326 325 326 328 327 326 324 321 320 318 316 314 312 309 305 298
163 166 168 174 179 181 190 203 213 224 259 297 313 318 313 312 313 315 319 323 325 327 330 330 331 331 332 332 331 331 332 333 334 333 332 330 327 324 321 317 314 311 306
165 171 179 188 194 201 204 204 213 223 245 273 302 309 312 315 319 323 326 328 330 333 334 337 336 334 334 333 334 338 340 340 338 335 333 331 328 326 325 323 322 321 317
180 190 198 199 203 207 206 212 218 235 244 284 304 310 317 321 324 328 330 333 335 336 336 335 334 336 338 340 341 340 339 336 335 336 334 332 330 328 328 327 326 324 321
201 211 211 209 207 206 208 216 227 228 272 303 312 320 323 327 329 330 331 332 333 335 339 341 342 341 341 338 336 336 337 336 337 339 338 337 336 332 328 325 323 320 316
214 218 217 214 208 207 214 224 229 266 301 313 319 323 324 321 320 324 329 335 339 341 340 340 340 339 340 339 337 336 338 338 340 340 339 340 340 338 333 330 325 321 320
220 222 216 207 204 209 218 226 257 295 305 310 312 311 310 314 321 328 333 335 336 337 338 339 341 341 339 338 339 337 336 339 342 342 342 342 340 339 336 331 324 320 316
215 211 202 202 205 213 226 249 276 292 299 300 300 306 312 319 327 329 327 329 330 333 337 338 338 338 338 337 336 335 338 340 341 343 344 343 341 339 338 328 325 323 321
180 186 191 197 211 226 242 270 288 293 291 297 304 311 319 321 321 321 322 325 327 329 333 336 335 334 334 335 336 336 339 339 339 339 339 338 336 335 332 330 326 322 321
181 187 197 207 218 243 269 282 287 285 292 303 311 316 316 314 314 315 317 321 325 327 329 331 331 329 328 330 333 336 337 337 333 332 333 333 334 329 330 329 327 322 316
197 199 205 223 251 268 278 282 282 290 306 312 311 307 304 307 311 315 318 321 322 323 324 324 325 326 326 329 332 332 334 335 331 328 329 329 328 329 329 329 328 325 320
210 217 236 256 270 277 282 283 293 301 303 299 296 299 306 312 315 316 317 317 319 320 320 322 324 326 328 331 330 329 332 332 329 324 323 325 326 328 328 331 331 329 328
231 246 261 273 279 281 275 279 282 289 292 295 301 305 308 311 313 311 312 314 316 317 320 323 326 331 334 332 330 332 332 334 325 320 324 326 327 328 331 333 336 338 338
252 262 271 275 277 271 269 276 284 290 292 296 298 300 303 305 307 309 311 313 316 318 322 324 327 330 331 332 331 330 331 325 319 321 327 329 333 335 336 336 337 337 338
256 263 267 273 277 270 272 277 281 287 291 292 294 296 300 303 305 305 307 312 314 317 320 323 326 328 330 330 331 329 325 324 328 329 330 334 336 337 337 336 335 337 337
Wind_Speed_850mb
44 41 39 36 32 29 28 27 25 25 25 25 26 28 31 33 35 39 41 41 40 42 40 33 36 38 42 45 48 54 54 53 55 57 59 57 48 45 26 21 40 38 40
46 41 39 36 33 31 29 30 30 30 28 30 33 34 32 31 30 31 33 34 34 33 30 31 32 36 37 38 41 43 45 46 47 44 47 30 51 32 43 45 42 43 43
41 34 35 34 31 32 29 29 30 27 23 24 27 27 26 26 25 25 26 27 25 24 25 28 30 32 34 35 37 38 38 39 43 40 25 19 16 56 44 58 52 50 56
35 33 34 33 30 28 25 20 19 21 23 22 20 19 16 13 13 15 16 17 19 21 23 25 26 28 30 32 34 36 38 40 43 45 37 36 41 39 42 44 62 63 60
36 36 33 29 24 20 18 16 13 10 5 1 1 4 6 7 7 10 12 14 18 20 22 24 27 29 31 33 37 39 40 41 42 43 49 52 53 46 37 60 47 80 77
38 37 34 31 27 23 18 15 14 13 14 11 12 10 9 9 8 8 9 12 16 20 23 26 29 32 35 36 39 40 41 43 44 45 44 46 50 55 55 67 84 87 91
43 26 37 35 33 31 29 26 21 13 9 9 9 7 7 8 9 11 16 18 20 23 27 30 32 36 39 42 44 45 47 48 48 48 47 46 47 50 53 58 69 76 98
37 29 39 39 38 31 23 20 16 11 7 6 7 8 11 12 15 18 21 23 25 27 29 33 38 43 47 50 52 54 55 54 54 53 53 53 52 53 54 57 58 79 83
40 28 31 34 36 28 26 18 14 8 4 3 9 11 14 16 17 18 20 22 25 29 35 41 46 51 55 57 56 54 54 53 55 54 55 56 54 54 54 55 53 49 48
36 27 29 31 29 26 18 13 7 2 2 5 10 13 15 14 14 16 19 25 32 39 45 51 56 57 56 56 57 57 58 58 56 57 59 60 60 59 56 55 54 49 53
43 52 45 35 27 22 17 12 7 5 4 6 9 11 12 12 16 22 28 36 44 50 55 57 56 57 58 57 55 53 53 53 54 54 58 60 62 64 63 61 58 56 53
59 53 45 36 27 18 15 12 9 4 3 6 8 10 13 18 24 31 40 46 51 51 50 51 49 48 48 48 49 51 52 54 56 57 58 59 62 63 63 65 65 63 59
55 46 38 32 26 20 16 12 8 6 6 6 8 12 17 23 32 40 45 45 45 45 44 44 43 43 45 47 48 49 51 51 54 58 62 64 66 68 68 67 68 66 67
49 42 34 31 28 23 19 14 11 9 6 6 10 17 26 33 38 39 40 39 39 39 38 41 44 45 46 48 51 53 57 59 61 62 63 64 66 70 72 72 68 67 69
42 35 34 36 33 28 22 18 13 9 7 9 17 25 31 33 34 33 33 33 35 38 40 39 41 45 49 54 59 61 61 62 63 63 64 65 67 68 68 66 66 65 62
48 40 38 38 37 31 25 19 16 12 10 17 24 27 30 30 30 30 31 33 34 37 41 44 46 48 50 53 57 62 65 65 65 67 67 66 65 65 65 65 62 58 60
49 48 46 43 38 31 24 18 14 12 18 24 27 28 28 29 29 30 32 35 38 40 42 44 46 50 54 60 62 64 65 67 68 69 70 73 74 73 71 72 71 71 69
41 45 44 43 36 29 22 16 13 19 24 26 26 26 28 29 31 33 35 37 39 42 44 47 51 54 56 58 62 65 64 64 67 69 72 72 73 74 68 75 84 84 82
27 31 34 34 30 22 15 16 21 24 25 25 26 28 28 30 33 35 37 39 41 42 45 49 52 53 56 57 58 61 63 65 66 67 68 71 74 74 71 76 86 93 93
22 28 32 27 20 18 19 22 24 25 25 26 29 29 32 34 36 39 40 41 43 44 44 46 49 53 52 54 54 57 62 64 68 69 70 73 74 74 75 76 80 89 94
25 26 24 22 21 20 21 24 25 26 26 29 31 33 35 39 41 41 42 42 42 44 45 45 47 47 49 47 50 54 58 63 70 74 81 83 74 74 80 75 80 76 80
22 22 21 19 20 22 26 27 26 26 29 33 34 36 38 39 39 41 42 42 43 43 45 45 44 45 43 47 51 55 59 60 67 76 85 83 84 92 91 87 84 81 79
22 22 21 22 24 27 29 27 26 30 33 34 37 38 39 39 41 43 44 43 43 45 47 47 47 42 42 46 53 59 65 68 62 74 71 90 94 94 93 86 79 76 74
26 25 26 27 29 32 29 28 30 33 35 36 38 39 40 43 43 43 42 42 43 44 47 47 47 47 49 53 59 65 68 69 74 82 86 86 86 83 81 81 77 71 66
31 32 33 34 34 37 33 33 34 36 38 39 40 42 44 44 44 43 41 41 44 45 45 44 45 49 52 54 55 55 60 58 67 74 84 87 86 87 84 81 75 68 64
39 39 37 40 39 39 38 38 41 40 43 43 45 46 46 45 44 42 38 40 41 42 41 39 43 46 51 57 61 55 50 59 74 78 81 83 81 80 79 77 74 69 64
Wind_Direction_850mb
202 204 206 213 216 220 224 229 234 242 247 253 262 268 272 277 281 286 288 291 293 296 299 293 298 303 304 300 297 299 302 307 310 316 314 316 319 321 322 330 317 315 308
202 207 211 216 218 222 232 239 242 248 256 264 267 269 274 280 281 283 288 292 297 302 304 300 295 297 302 306 310 313 315 317 319 330 334 331 328 322 314 319 321 321 314
203 204 207 210 214 219 225 233 238 244 248 256 263 271 279 281 282 284 291 299 306 311 313 312 313 316 318 320 322 322 323 322 321 326 333 330 309 319 319 314 317 310 311
196 194 193 192 194 194 194 198 217 235 248 263 277 274 273 278 294 308 315 319 319 323 328 327 326 324 324 322 323 326 327 326 324 325 320 311 299 307 311 307 310 307 304
169 164 163 165 168 174 185 198 216 237 253 257 26 24 28 30 7 347 344 338 338 339 335 333 333 331 330 330 331 331 330 327 325 322 320 318 317 319 298 305 305 307 311
150 155 154 150 151 146 150 146 120 113 104 92 76 57 47 42 24 354 336 338 337 336 335 336 336 337 336 336 335 334 330 328 326 324 319 315 314 311 308 304 309 311 312
142 157 149 140 131 128 124 123 116 103 91 77 67 45 17 2 343 337 338 339 338 342 345 347 348 346 344 341 337 333 330 326 323 321 318 316 314 309 307 302 303 305 309
129 146 134 128 126 124 121 121 120 112 91 55 28 12 357 348 341 343 343 346 351 354 352 346 341 337 333 329 327 323 320 318 316 314 311 310 309 307 306 306 308 310 306
136 143 131 143 152 155 161 147 127 119 101 16 350 347 344 344 345 355 357 350 345 341 338 332 328 326 323 321 319 317 315 316 314 315 314 312 312 308 307 304 302 300 301
167 182 174 159 144 144 141 119 117 134 330 346 338 343 348 351 353 356 342 333 332 330 326 324 323 322 321 321 321 321 320 319 319 317 315 315 312 311 308 304 300 295 290
186 178 173 164 161 155 157 164 180 216 273 329 337 345 345 344 343 336 328 327 325 325 324 323 324 324 325 324 324 325 325 324 323 321 318 318 315 314 313 308 303 298 290
171 167 165 163 165 165 168 178 193 219 297 319 331 331 335 332 327 322 321 321 322 323 324 325 326 327 326 326 325 326 328 327 326 324 321 320 318 316 314 312 309 305 298
163 166 168 174 179 181 190 203 213 224 259 297 313 318 313 312 313 315 319 323 325 327 330 330 331 331 332 332 331 331 332 333 334 333 332 330 327 324 321 317 314 311 306
165 171 179 188 194 201 204 204 213 223 245 273 302 309 312 315 319 323 326 328 330 333 334 337 336 334 334 333 334 338 340 340 338 335 333 331 328 326 325 323 322 321 317
180 190 198 199 203 207 206 212 218 235 244 284 304 310 317 321 324 328 330 333 335 336 336 335 334 336 338 340 341 340 339 336 335 336 334 332 330 328 328 327 326 324 321
201 211 211 209 207 206 208 216 227 228 272 303 312 320 323 327 329 330 331 332 333 335 339 341 342 341 341 338 336 336 337 336 337 339 338 337 336 332 328 325 323 320 316
214 218 217 214 208 207 214 224 229 266 301 313 319 323 324 321 320 324 329 335 339 341 340 340 340 339 340 339 337 336 338 338 340 340 339 340 340 338 333 330 325 321 320
220 222 216 207 204 209 218 226 257 295 305 310 312 311 310 314 321 328 333 335 336 337 338 339 341 341 339 338 339 337 336 339 342 342 342 342 340 339 336 331 324 320 316
215 211 202 202 205 213 226 249 276 292 299 300 300 306 312 319 327 329 327 329 330 333 337 338 338 338 338 337 336 335 338 340 341 343 344 343 341 339 338 328 325 323 321
180 186 191 197 211 226 242 270 288 293 291 297 304 311 319 321 321 321 322 325 327 329 333 336 335 334 334 335 336 336 339 339 339 339 339 338 336 335 332 330 326 322 321
181 187 197 207 218 243 269 282 287 285 292 303 311 316 316 314 314 315 317 321 325 327 329 331 331 329 328 330 333 336 337 337 333 332 333 333 334 329 330 329 327 322 316
197 199 205 223 251 268 278 282 282 290 306 312 311 307 304 307 311 315 318 321 322 323 324 324 325 326 326 329 332 332 334 335 331 328 329 329 328 329 329 329 328 325 320
210 217 236 256 270 277 282 283 293 301 303 299 296 299 306 312 315 316 317 317 319 320 320 322 324 326 328 331 330 329 332 332 329 324 323 325 326 328 328 331 331 329 328
231 246 261 273 279 281 275 279 282 289 292 295 301 305 308 311 313 311 312 314 316 317 320 323 326 331 334 332 330 332 332 334 325 320 324 326 327 328 331 333 336 338 338
252 262 271 275 277 271 269 276 284 290 292 296 298 300 303 305 307 309 311 313 316 318 322 324 327 330 331 332 331 330 331 325 319 321 327 329 333 335 336 336 337 337 338
256 263 267 273 277 270 272 277 281 287 291 292 294 296 300 303 305 305 307 312 314 317 320 323 326 328 330 330 331 329 325 324 328 329 330 334 336 337 337 336 335 337 337